^^
Saratoga-Weather Station Historical Data
Daily Summary for April 1, 2020 Units:  English    Metric   Both
Daily Weekly Monthly Yearly Custom
  High: Low: Average:
Temperature: 76.5 °F 55.2 °F 67.1 °F
Dew Point: 64.2 °F 53.2 °F 59.5 °F
Humidity: 95% 64% 78%
Wind Speed: 8.9mph 0mph 2.1mph
Wind Gust: 15mph - -
Wind- - WSW
Pressure: 29.8 in 29.8 in -
Precipitation: 0 in    
Historical Graphs
 
 
Tabular Data for April 1, 2020
Time Temperature Dew Point Pressure Wind Wind Speed Wind Gust Humidity Rainfall Rate (Hourly) solar
00:04 62.1 °F 56.1 °F 29.8 in ESE 0.9 mph 2 mph 81% 0 in 0 W/m2
00:09 62.1 °F 56.1 °F 29.8 in ESE 0.9 mph 2 mph 81% 0 in 0 W/m2
00:14 61.9 °F 55.9 °F 29.8 in East 0.9 mph 1 mph 81% 0 in 0 W/m2
00:19 61.9 °F 56.3 °F 29.8 in East 2 mph 2 mph 82% 0 in 0 W/m2
00:24 61.9 °F 55.9 °F 29.8 in East 0.9 mph 1 mph 81% 0 in 0 W/m2
00:29 61.9 °F 55.9 °F 29.8 in Calm   1 mph 81% 0 in 0 W/m2
00:34 61.7 °F 55.8 °F 29.8 in Calm     81% 0 in 0 W/m2
00:39 61.5 °F 55.9 °F 29.8 in Calm   1 mph 82% 0 in 0 W/m2
00:44 61.2 °F 55.6 °F 29.8 in Calm     82% 0 in 0 W/m2
00:49 61 °F 55.8 °F 29.8 in Calm   1 mph 83% 0 in 0 W/m2
00:54 60.6 °F 55.4 °F 29.8 in Calm   2 mph 83% 0 in 0 W/m2
00:59 60.3 °F 55.4 °F 29.8 in Calm     84% 0 in 0 W/m2
01:04 60.1 °F 55.6 °F 29.8 in Calm   1 mph 85% 0 in 0 W/m2
01:09 59.7 °F 55.2 °F 29.8 in Calm     85% 0 in 0 W/m2
01:14 59.5 °F 55.4 °F 29.8 in Calm     86% 0 in 0 W/m2
01:19 59.4 °F 55.2 °F 29.8 in Calm   1 mph 86% 0 in 0 W/m2
01:24 59.4 °F 55.2 °F 29.8 in Calm     86% 0 in 0 W/m2
01:29 59.2 °F 55.4 °F 29.8 in Calm   1 mph 87% 0 in 0 W/m2
01:34 59 °F 55.2 °F 29.8 in Calm     87% 0 in 0 W/m2
01:39 58.8 °F 55 °F 29.8 in Calm     87% 0 in 0 W/m2
01:44 58.6 °F 55 °F 29.8 in Calm     88% 0 in 0 W/m2
01:49 58.5 °F 54.9 °F 29.8 in Calm     88% 0 in 0 W/m2
01:54 58.3 °F 55 °F 29.8 in Calm   1 mph 89% 0 in 0 W/m2
01:59 58.3 °F 55 °F 29.8 in Calm   1 mph 89% 0 in 0 W/m2
02:04 58.3 °F 55 °F 29.8 in Calm     89% 0 in 0 W/m2
02:09 58.3 °F 55 °F 29.8 in Calm   1 mph 89% 0 in 0 W/m2
02:15 58.3 °F 55 °F 29.8 in SW 0.9 mph 2 mph 89% 0 in 0 W/m2
02:20 58.3 °F 55.4 °F 29.8 in Calm   2 mph 90% 0 in 0 W/m2
02:25 58.5 °F 55.6 °F 29.8 in SSE 2 mph 2 mph 90% 0 in 0 W/m2
02:30 58.6 °F 55.4 °F 29.8 in Calm   2 mph 89% 0 in 0 W/m2
02:35 58.8 °F 55.6 °F 29.8 in Calm   2 mph 89% 0 in 0 W/m2
02:40 59 °F 55.4 °F 29.8 in ESE 0.9 mph 2 mph 88% 0 in 0 W/m2
02:45 59.2 °F 55.6 °F 29.8 in ESE 2 mph 4 mph 88% 0 in 0 W/m2
02:50 59.2 °F 55.6 °F 29.8 in Calm   1 mph 88% 0 in 0 W/m2
02:55 59.2 °F 55.6 °F 29.8 in ESE 0.9 mph 3 mph 88% 0 in 0 W/m2
03:00 59.2 °F 55.6 °F 29.8 in Calm   1 mph 88% 0 in 0 W/m2
03:05 59.2 °F 55.6 °F 29.8 in Calm   1 mph 88% 0 in 0 W/m2
03:10 59 °F 55.4 °F 29.8 in ESE 2 mph 2 mph 88% 0 in 0 W/m2
03:16 58.8 °F 55.2 °F 29.8 in Calm     88% 0 in 0 W/m2
03:21 58.6 °F 55 °F 29.8 in Calm     88% 0 in 0 W/m2
03:26 58.5 °F 54.9 °F 29.8 in Calm     88% 0 in 0 W/m2
03:31 58.3 °F 55 °F 29.8 in Calm     89% 0 in 0 W/m2
03:36 57.9 °F 54.7 °F 29.8 in Calm     89% 0 in 0 W/m2
03:41 57.7 °F 54.9 °F 29.8 in Calm     90% 0 in 0 W/m2
03:46 57.6 °F 54.7 °F 29.8 in Calm     90% 0 in 0 W/m2
03:51 57.4 °F 54.5 °F 29.8 in Calm     90% 0 in 0 W/m2
03:56 57 °F 54.5 °F 29.8 in Calm     91% 0 in 0 W/m2
04:01 57 °F 54.5 °F 29.8 in Calm     91% 0 in 0 W/m2
04:06 56.8 °F 54.3 °F 29.8 in Calm     91% 0 in 0 W/m2
04:11 56.7 °F 54.1 °F 29.8 in Calm     91% 0 in 0 W/m2
04:16 56.7 °F 54.3 °F 29.8 in Calm     92% 0 in 0 W/m2
04:21 56.7 °F 54.3 °F 29.8 in Calm     92% 0 in 0 W/m2
04:26 56.5 °F 54.1 °F 29.8 in ESE 2 mph 2 mph 92% 0 in 0 W/m2
04:31 56.5 °F 54.1 °F 29.8 in Calm     92% 0 in 0 W/m2
04:36 56.3 °F 54 °F 29.8 in Calm     92% 0 in 0 W/m2
04:41 56.1 °F 53.8 °F 29.8 in Calm     92% 0 in 0 W/m2
04:46 56.1 °F 53.8 °F 29.8 in Calm     92% 0 in 0 W/m2
04:51 56.1 °F 53.8 °F 29.8 in Calm     92% 0 in 0 W/m2
04:56 55.9 °F 54 °F 29.8 in Calm     93% 0 in 0 W/m2
05:01 55.9 °F 54 °F 29.8 in Calm     93% 0 in 0 W/m2
05:06 55.8 °F 53.8 °F 29.8 in Calm     93% 0 in 0 W/m2
05:11 55.8 °F 53.8 °F 29.8 in Calm     93% 0 in 0 W/m2
05:16 55.6 °F 53.6 °F 29.8 in Calm     93% 0 in 0 W/m2
05:21 55.6 °F 53.6 °F 29.8 in Calm     93% 0 in 0 W/m2
05:26 55.6 °F 53.6 °F 29.8 in Calm     93% 0 in 0 W/m2
05:31 55.4 °F 53.4 °F 29.8 in Calm     93% 0 in 0 W/m2
05:36 55.2 °F 53.2 °F 29.8 in Calm   1 mph 93% 0 in 0 W/m2
05:41 55.2 °F 53.6 °F 29.8 in Calm     94% 0 in 5 W/m2
05:46 55.2 °F 53.6 °F 29.8 in Calm     94% 0 in 7 W/m2
05:52 55.2 °F 53.6 °F 29.8 in Calm     94% 0 in 9 W/m2
05:57 55.2 °F 53.6 °F 29.8 in Calm     94% 0 in 11 W/m2
06:02 55.4 °F 53.8 °F 29.8 in Calm     94% 0 in 12 W/m2
06:07 55.4 °F 53.8 °F 29.8 in Calm     94% 0 in 14 W/m2
06:12 55.6 °F 54 °F 29.8 in Calm     94% 0 in 16 W/m2
06:17 55.6 °F 54 °F 29.8 in ESE 0.9 mph 1 mph 94% 0 in 16 W/m2
06:22 55.8 °F 54.3 °F 29.8 in ESE 2 mph 3 mph 95% 0 in 18 W/m2
06:27 56.1 °F 54.7 °F 29.8 in ESE 2 mph 2 mph 95% 0 in 19 W/m2
06:32 56.5 °F 55 °F 29.8 in Calm   3 mph 95% 0 in 21 W/m2
06:37 57 °F 55.6 °F 29.8 in Calm   3 mph 95% 0 in 21 W/m2
06:42 57.4 °F 55.6 °F 29.8 in ENE 0.9 mph 2 mph 94% 0 in 23 W/m2
06:47 58.3 °F 56.5 °F 29.8 in North 2 mph 3 mph 94% 0 in 23 W/m2
06:52 58.8 °F 56.8 °F 29.8 in Calm   2 mph 93% 0 in 25 W/m2
06:57 59.4 °F 57 °F 29.8 in SW 2 mph 2 mph 92% 0 in 25 W/m2
07:02 59.7 °F 57 °F 29.8 in NE 2 mph 3 mph 91% 0 in 26 W/m2
07:07 60.3 °F 57.4 °F 29.8 in ENE 2 mph 6 mph 90% 0 in 26 W/m2
07:12 60.4 °F 57.2 °F 29.8 in ENE 2 mph 2 mph 89% 0 in 28 W/m2
07:17 60.6 °F 57 °F 29.8 in ENE 2 mph 4 mph 88% 0 in 28 W/m2
07:22 61 °F 57.4 °F 29.8 in Calm   4 mph 88% 0 in 30 W/m2
07:32 61.5 °F 57.6 °F 29.8 in NE 0.9 mph 3 mph 87% 0 in 32 W/m2
07:37 61.9 °F 57.6 °F 29.8 in Calm   3 mph 86% 0 in 32 W/m2
07:42 62.1 °F 57.7 °F 29.8 in NW 0.9 mph 1 mph 86% 0 in 33 W/m2
07:47 62.2 °F 57.9 °F 29.8 in East 2 mph 4 mph 86% 0 in 204 W/m2
07:52 62.4 °F 58.1 °F 29.8 in ESE 0.9 mph 2 mph 86% 0 in 218 W/m2
07:57 63 °F 58.5 °F 29.8 in North 2 mph 4 mph 85% 0 in 239 W/m2
08:02 63.3 °F 58.5 °F 29.8 in WNW 4 mph 7 mph 84% 0 in 72 W/m2
08:07 63.5 °F 58.6 °F 29.8 in WNW 2 mph 4 mph 84% 0 in 111 W/m2
08:12 63.7 °F 58.8 °F 29.8 in WNW 2.9 mph 6 mph 84% 0 in 67 W/m2
08:17 63.7 °F 58.8 °F 29.8 in Calm   7 mph 84% 0 in 114 W/m2
08:22 64 °F 59.2 °F 29.8 in NW 2 mph 3 mph 84% 0 in 65 W/m2
08:27 64.6 °F 59.4 °F 29.8 in WNW 2.9 mph 11 mph 83% 0 in 62 W/m2
08:32 64.8 °F 59.2 °F 29.8 in WSW 2.9 mph 6 mph 82% 0 in 60 W/m2
08:37 64.9 °F 59.4 °F 29.8 in West 2 mph 11 mph 82% 0 in 84 W/m2
08:42 65.1 °F 59.5 °F 29.8 in NNE 2 mph 8 mph 82% 0 in 121 W/m2
08:47 65.1 °F 59.5 °F 29.8 in WNW 2 mph 4 mph 82% 0 in 171 W/m2
08:52 65.3 °F 59.7 °F 29.8 in WNW 0.9 mph 8 mph 82% 0 in 188 W/m2
08:57 65.5 °F 59.9 °F 29.8 in NNW 2.9 mph 3 mph 82% 0 in 213 W/m2
09:02 65.5 °F 59.9 °F 29.8 in WSW 2.9 mph 5 mph 82% 0 in 206 W/m2
09:07 65.5 °F 59.5 °F 29.8 in WNW 2 mph 8 mph 81% 0 in 188 W/m2
09:12 65.5 °F 59.9 °F 29.8 in WNW 0.9 mph 3 mph 82% 0 in 250 W/m2
09:17 65.7 °F 60.1 °F 29.8 in Calm   1 mph 82% 0 in 237 W/m2
09:22 65.7 °F 59.7 °F 29.8 in NW 2 mph 8 mph 81% 0 in 248 W/m2
09:27 65.7 °F 60.1 °F 29.8 in NNW 4 mph 4 mph 82% 0 in 301 W/m2
09:32 65.8 °F 59.9 °F 29.8 in West 4 mph 8 mph 81% 0 in 251 W/m2
09:37 65.8 °F 59.9 °F 29.8 in NW 4.9 mph 7 mph 81% 0 in 251 W/m2
09:42 65.8 °F 60.3 °F 29.8 in NW 2 mph 4 mph 82% 0 in 276 W/m2
09:47 65.8 °F 59.9 °F 29.8 in WNW 4 mph 8 mph 81% 0 in 278 W/m2
09:52 65.8 °F 59.9 °F 29.8 in WNW 2 mph 6 mph 81% 0 in 288 W/m2
09:57 66 °F 60.1 °F 29.8 in NNW 0.9 mph 8 mph 81% 0 in 262 W/m2
10:03 66.6 °F 60.6 °F 29.8 in WNW 2.9 mph 4 mph 81% 0 in 341 W/m2
10:08 66.7 °F 60.4 °F 29.8 in NNW 0.9 mph 8 mph 80% 0 in 325 W/m2
10:13 66.9 °F 60.6 °F 29.8 in NNW 4 mph 5 mph 80% 0 in 341 W/m2
10:18 66.7 °F 60.4 °F 29.8 in NW 2.9 mph 5 mph 80% 0 in 274 W/m2
10:23 66.7 °F 60.4 °F 29.8 in WNW 2 mph 2 mph 80% 0 in 255 W/m2
10:28 66.9 °F 60.6 °F 29.8 in North 2.9 mph 3 mph 80% 0 in 232 W/m2
10:33 67.1 °F 60.4 °F 29.8 in NW 0.9 mph 7 mph 79% 0 in 244 W/m2
10:38 66.7 °F 60.4 °F 29.8 in West 4 mph 4 mph 80% 0 in 285 W/m2
10:43 66.9 °F 60.6 °F 29.8 in WSW 0.9 mph 7 mph 80% 0 in 352 W/m2
10:49 67.1 °F 60.8 °F 29.8 in Calm   3 mph 80% 0 in 367 W/m2
10:54 67.5 °F 60.8 °F 29.8 in West 2 mph 11 mph 79% 0 in 380 W/m2
10:59 67.5 °F 60.8 °F 29.8 in West 6.9 mph 9 mph 79% 0 in 339 W/m2
11:04 67.5 °F 60.8 °F 29.8 in NW 4.9 mph 11 mph 79% 0 in 334 W/m2
11:09 67.5 °F 60.8 °F 29.8 in South 0.9 mph 3 mph 79% 0 in 299 W/m2
11:14 67.3 °F 60.6 °F 29.8 in ESE 0.9 mph 8 mph 79% 0 in 230 W/m2
11:19 67.5 °F 60.8 °F 29.8 in ENE 0.9 mph 5 mph 79% 0 in 352 W/m2
11:24 67.6 °F 61 °F 29.8 in SSW 0.9 mph 5 mph 79% 0 in 325 W/m2
11:29 67.6 °F 60.6 °F 29.8 in West 0.9 mph 8 mph 78% 0 in 202 W/m2
11:39 67.6 °F 61 °F 29.8 in Calm   8 mph 79% 0 in 262 W/m2
11:44 67.8 °F 61 °F 29.8 in WNW 2 mph 6 mph 79% 0 in 285 W/m2
11:49 68.4 °F 61.2 °F 29.8 in Calm   2 mph 78% 0 in 483 W/m2
11:54 69.1 °F 61.5 °F 29.8 in WNW 4 mph 5 mph 77% 0 in 401 W/m2
11:59 69.3 °F 61 °F 29.8 in WNW 2.9 mph 7 mph 75% 0 in 446 W/m2
12:04 69.4 °F 61.2 °F 29.8 in NNE 2.9 mph 3 mph 75% 0 in 411 W/m2
12:09 69.8 °F 61.5 °F 29.8 in WSW 0.9 mph 8 mph 75% 0 in 417 W/m2
12:14 69.8 °F 61.5 °F 29.8 in West 2.9 mph 7 mph 75% 0 in 302 W/m2
12:19 70 °F 61.3 °F 29.8 in ENE 2 mph 4 mph 74% 0 in 288 W/m2
12:24 70.3 °F 61.7 °F 29.8 in WNW 4.9 mph 7 mph 74% 0 in 408 W/m2
12:29 70.3 °F 61.3 °F 29.8 in WNW 6.9 mph 10 mph 73% 0 in 408 W/m2
12:34 71.2 °F 61.7 °F 29.8 in WNW 6.9 mph 7 mph 72% 0 in 408 W/m2
12:39 71.8 °F 61.9 °F 29.8 in WNW 6.9 mph 7 mph 71% 0 in 408 W/m2
12:44 72 °F 61.7 °F 29.8 in WNW 6.9 mph   70% 0 in 475 W/m2
12:49 72.3 °F 62.1 °F 29.8 in Calm     70% 0 in 882 W/m2
12:54 72.9 °F 62.1 °F 29.8 in Calm     69% 0 in 882 W/m2
12:59 73.4 °F 62.2 °F 29.8 in Calm     68% 0 in 1100 W/m2
13:04 73.8 °F 62.1 °F 29.8 in Calm     67% 0 in 1100 W/m2
13:09 73.6 °F 62.4 °F 29.8 in Calm     68% 0 in 531 W/m2
13:14 73.2 °F 62.4 °F 29.8 in WNW 2 mph 7 mph 69% 0 in 1158 W/m2
13:19 73.6 °F 62.4 °F 29.8 in WSW 4 mph 5 mph 68% 0 in 1137 W/m2
13:24 73.9 °F 62.8 °F 29.8 in West 2.9 mph 3 mph 68% 0 in 1035 W/m2
13:29 74.5 °F 62.4 °F 29.8 in West 8.1 mph 13 mph 66% 0 in 668 W/m2
13:34 73.6 °F 61.9 °F 29.8 in WNW 6.9 mph 7 mph 67% 0 in 668 W/m2
13:39 73.9 °F 62.2 °F 29.8 in NNW 2 mph 13 mph 67% 0 in 991 W/m2
13:44 74.1 °F 62.1 °F 29.8 in West 8.9 mph 10 mph 66% 0 in 1014 W/m2
13:49 74.5 °F 63.1 °F 29.8 in WNW 4 mph 13 mph 68% 0 in 308 W/m2
13:54 74.7 °F 62.6 °F 29.8 in North 6 mph 8 mph 66% 0 in 1188 W/m2
13:59 74.8 °F 62.8 °F 29.8 in NW 2.9 mph 11 mph 66% 0 in 1171 W/m2
14:04 74.7 °F 62.6 °F 29.8 in WSW 6 mph 15 mph 66% 0 in 490 W/m2
14:09 74.1 °F 62.4 °F 29.8 in WNW 2 mph 8 mph 67% 0 in 380 W/m2
14:14 73.8 °F 62.1 °F 29.8 in North 4.9 mph 7 mph 67% 0 in 406 W/m2
14:19 73.2 °F 62.1 °F 29.8 in NE 0.9 mph 8 mph 68% 0 in 487 W/m2
14:24 73.2 °F 62.4 °F 29.8 in NW 0.9 mph 2 mph 69% 0 in 404 W/m2
14:29 73.9 °F 62.2 °F 29.8 in WNW 2.9 mph 9 mph 67% 0 in 417 W/m2
14:34 73.9 °F 62.2 °F 29.8 in NW 2.9 mph 11 mph 67% 0 in 336 W/m2
14:39 73.8 °F 62.6 °F 29.8 in West 4 mph 6 mph 68% 0 in 308 W/m2
14:44 73.8 °F 62.1 °F 29.8 in NNW 2 mph 11 mph 67% 0 in 468 W/m2
14:49 73.6 °F 62.8 °F 29.8 in NE 2 mph 10 mph 69% 0 in 394 W/m2
14:54 73.8 °F 62.6 °F 29.8 in NW 2.9 mph 4 mph 68% 0 in 359 W/m2
14:59 73.9 °F 62.8 °F 29.8 in West 2 mph 7 mph 68% 0 in 459 W/m2
15:04 74.5 °F 63.1 °F 29.8 in West 8.9 mph 9 mph 68% 0 in 487 W/m2
15:09 74.7 °F 62.6 °F 29.8 in NW 4 mph 6 mph 66% 0 in 346 W/m2
15:14 74.5 °F 62.8 °F 29.8 in WNW 4 mph 9 mph 67% 0 in 969 W/m2
15:19 74.5 °F 62.8 °F 29.8 in SW 0.9 mph 4 mph 67% 0 in 378 W/m2
15:25 74.5 °F 62.8 °F 29.8 in WSW 8.9 mph 11 mph 67% 0 in 383 W/m2
15:30 74.1 °F 63 °F 29.8 in WNW 2 mph 8 mph 68% 0 in 376 W/m2
15:35 74.3 °F 62.6 °F 29.8 in NW 2 mph 10 mph 67% 0 in 373 W/m2
15:40 74.5 °F 63.1 °F 29.8 in NNW 0.9 mph 2 mph 68% 0 in 295 W/m2
15:45 74.7 °F 63 °F 29.8 in SW 0.9 mph 9 mph 67% 0 in 301 W/m2
15:55 74.5 °F 63.1 °F 29.8 in West 2.9 mph 7 mph 68% 0 in 271 W/m2
16:00 74.7 °F 63 °F 29.8 in NW 2.9 mph 9 mph 67% 0 in 199 W/m2
16:05 74.5 °F 62.8 °F 29.8 in WNW 4 mph 4 mph 67% 0 in 193 W/m2
16:10 74.3 °F 63.1 °F 29.8 in NW 2.9 mph 7 mph 68% 0 in 450 W/m2
16:15 74.7 °F 63 °F 29.8 in NNW 8.1 mph 11 mph 67% 0 in 450 W/m2
16:20 74.3 °F 62.6 °F 29.8 in SSW 2 mph 6 mph 67% 0 in 234 W/m2
16:25 74.5 °F 63.7 °F 29.8 in WSW 2.9 mph 9 mph 69% 0 in 206 W/m2
16:30 74.8 °F 63.1 °F 29.8 in NNW 2.9 mph 4 mph 67% 0 in 360 W/m2
16:35 75.4 °F 63.7 °F 29.8 in WNW 4 mph 8 mph 67% 0 in 302 W/m2
16:40 75.6 °F 63.3 °F 29.8 in WNW 4 mph 10 mph 66% 0 in 907 W/m2
16:45 75.9 °F 64.2 °F 29.8 in WSW 0.9 mph 4 mph 67% 0 in 837 W/m2
16:50 76.3 °F 64 °F 29.8 in SW 4 mph 4 mph 66% 0 in 770 W/m2
16:55 76.3 °F 63.7 °F 29.8 in WNW 2 mph 4 mph 65% 0 in 747 W/m2
17:00 75.7 °F 63.1 °F 29.8 in SW 4 mph 6 mph 65% 0 in 188 W/m2
17:05 75.6 °F 63.3 °F 29.8 in West 6 mph 8 mph 66% 0 in 188 W/m2
17:11 75.6 °F 63 °F 29.8 in West 6 mph 12 mph 65% 0 in 719 W/m2
17:16 75.9 °F 63.7 °F 29.8 in West 6 mph 7 mph 66% 0 in 649 W/m2
17:21 76.3 °F 63.7 °F 29.8 in WSW 2.9 mph 10 mph 65% 0 in 664 W/m2
17:26 76.5 °F 63.3 °F 29.8 in WSW 8.1 mph 10 mph 64% 0 in 135 W/m2
17:31 75.9 °F 63.3 °F 29.8 in WNW 4 mph 6 mph 65% 0 in 160 W/m2
17:36 75.6 °F 63 °F 29.8 in WNW 4 mph 5 mph 65% 0 in 176 W/m2
17:41 75.2 °F 63.1 °F 29.8 in SW 4 mph 8 mph 66% 0 in 178 W/m2
17:46 74.8 °F 62.8 °F 29.8 in SW 2.9 mph 4 mph 66% 0 in 148 W/m2
17:51 74.8 °F 63.1 °F 29.8 in WNW 2.9 mph 6 mph 67% 0 in 178 W/m2
17:56 74.8 °F 63.1 °F 29.8 in NW 2 mph 3 mph 67% 0 in 200 W/m2
18:01 75 °F 63.3 °F 29.8 in WNW 2 mph 3 mph 67% 0 in 155 W/m2
18:06 75 °F 63.3 °F 29.8 in Calm   8 mph 67% 0 in 95 W/m2
18:11 74.8 °F 62.8 °F 29.8 in West 2.9 mph 8 mph 66% 0 in 118 W/m2
18:16 74.7 °F 63 °F 29.8 in West 0.9 mph 8 mph 67% 0 in 104 W/m2
18:21 74.5 °F 62.8 °F 29.8 in WSW 2 mph 6 mph 67% 0 in 137 W/m2
18:26 74.5 °F 62.8 °F 29.8 in WNW 2 mph 7 mph 67% 0 in 137 W/m2
18:31 74.5 °F 62.8 °F 29.8 in West 4 mph 6 mph 67% 0 in 128 W/m2
18:36 74.5 °F 62.8 °F 29.8 in WNW 2 mph 4 mph 67% 0 in 104 W/m2
18:41 74.5 °F 62.8 °F 29.8 in West 6 mph 7 mph 67% 0 in 109 W/m2
18:46 74.5 °F 62.8 °F 29.8 in West 2.9 mph 4 mph 67% 0 in 107 W/m2
18:51 74.5 °F 62.8 °F 29.8 in WSW 2 mph 4 mph 67% 0 in 95 W/m2
18:56 74.5 °F 62.4 °F 29.8 in WNW 2.9 mph 4 mph 66% 0 in 179 W/m2
19:01 74.5 °F 62.4 °F 29.8 in West 4 mph 9 mph 66% 0 in 162 W/m2
19:06 74.5 °F 61.9 °F 29.8 in WSW 2.9 mph 8 mph 65% 0 in 153 W/m2
19:11 74.5 °F 61.9 °F 29.8 in WSW 0.9 mph 4 mph 65% 0 in 114 W/m2
19:16 74.5 °F 61.9 °F 29.8 in NW 2 mph 7 mph 65% 0 in 100 W/m2
19:21 74.5 °F 62.4 °F 29.8 in NW 4 mph 4 mph 66% 0 in 123 W/m2
19:26 74.5 °F 61.9 °F 29.8 in Calm   7 mph 65% 0 in 137 W/m2
19:31 74.5 °F 62.4 °F 29.8 in SW 0.9 mph 2 mph 66% 0 in 90 W/m2
19:36 74.5 °F 62.4 °F 29.8 in WNW 2 mph 7 mph 66% 0 in 77 W/m2
19:41 74.3 °F 62.2 °F 29.8 in West 2 mph 2 mph 66% 0 in 86 W/m2
19:46 74.3 °F 62.2 °F 29.8 in West 4 mph 8 mph 66% 0 in 63 W/m2
19:51 74.1 °F 61.5 °F 29.8 in WNW 0.9 mph 4 mph 65% 0 in 62 W/m2
19:56 74.1 °F 61.5 °F 29.8 in NW 0.9 mph 8 mph 65% 0 in 53 W/m2
20:01 74.1 °F 61.5 °F 29.8 in North 0.9 mph 2 mph 65% 0 in 67 W/m2
20:06 74.1 °F 62.1 °F 29.8 in NW 0.9 mph 3 mph 66% 0 in 67 W/m2
20:11 74.1 °F 62.1 °F 29.8 in West 0.9 mph 2 mph 66% 0 in 49 W/m2
20:16 73.9 °F 61.9 °F 29.8 in West 2 mph 2 mph 66% 0 in 35 W/m2
20:21 73.9 °F 61.9 °F 29.8 in West 2 mph 6 mph 66% 0 in 32 W/m2
20:26 73.8 °F 61.7 °F 29.8 in WNW 4.9 mph 5 mph 66% 0 in 39 W/m2
20:31 73.6 °F 61.2 °F 29.8 in NW 2.9 mph 4 mph 65% 0 in 19 W/m2
20:36 73.6 °F 61.2 °F 29.8 in WNW 2.9 mph 4 mph 65% 0 in 11 W/m2
20:41 73.4 °F 61 °F 29.8 in NW 2.9 mph 7 mph 65% 0 in 9 W/m2
20:46 73.2 °F 61.2 °F 29.8 in SW 0.9 mph 4 mph 66% 0 in 9 W/m2
20:51 73.2 °F 61.2 °F 29.8 in SSW 2.9 mph 8 mph 66% 0 in 12 W/m2
20:56 73 °F 61 °F 29.8 in NNW 2 mph 4 mph 66% 0 in 11 W/m2
21:01 73 °F 61 °F 29.8 in West 2 mph 8 mph 66% 0 in 18 W/m2
21:06 72.9 °F 60.8 °F 29.8 in NW 0.9 mph 2 mph 66% 0 in 14 W/m2
21:11 72.9 °F 60.8 °F 29.8 in WNW 4 mph 6 mph 66% 0 in 11 W/m2
21:16 72.7 °F 61.2 °F 29.8 in WNW 2 mph 4 mph 67% 0 in 12 W/m2
21:26 72.5 °F 61 °F 29.8 in NW 0.9 mph 2 mph 67% 0 in 12 W/m2
21:31 72.3 °F 61.2 °F 29.8 in NW 0.9 mph 6 mph 68% 0 in 9 W/m2
21:36 72.1 °F 61 °F 29.8 in NNE 2.9 mph 3 mph 68% 0 in 5 W/m2
21:41 72.1 °F 61 °F 29.8 in NW 2.9 mph 6 mph 68% 0 in 0 W/m2
21:46 72 °F 60.8 °F 29.8 in WNW 4 mph 5 mph 68% 0 in 0 W/m2
21:51 72 °F 60.8 °F 29.8 in NW 2 mph 3 mph 68% 0 in 0 W/m2
21:56 71.8 °F 60.6 °F 29.8 in WNW 0.9 mph 8 mph 68% 0 in 0 W/m2
22:01 71.6 °F 60.8 °F 29.8 in West 0.9 mph 3 mph 69% 0 in 0 W/m2
22:06 71.4 °F 60.8 °F 29.8 in WNW 2 mph 3 mph 69% 0 in 0 W/m2
22:11 71.4 °F 61.2 °F 29.8 in West 2 mph 2 mph 70% 0 in 0 W/m2
22:16 71.2 °F 61 °F 29.8 in West 0.9 mph 3 mph 70% 0 in 0 W/m2
22:21 71.1 °F 60.8 °F 29.8 in WNW 4 mph 4 mph 70% 0 in 0 W/m2
22:26 70.9 °F 60.6 °F 29.8 in SW 4 mph 6 mph 70% 0 in 0 W/m2
22:31 70.9 °F 60.6 °F 29.8 in WNW 2.9 mph 6 mph 70% 0 in 0 W/m2
22:36 70.7 °F 60.8 °F 29.8 in WSW 6.9 mph 8 mph 71% 0 in 0 W/m2
22:41 70.5 °F 60.6 °F 29.8 in West 2 mph 8 mph 71% 0 in 0 W/m2
22:46 70.5 °F 61 °F 29.8 in WSW 4 mph 8 mph 72% 0 in 0 W/m2
22:51 70.3 °F 61.3 °F 29.8 in WNW 4.9 mph 9 mph 73% 0 in 0 W/m2
22:57 70.2 °F 61.9 °F 29.8 in West 2.9 mph 5 mph 75% 0 in 0 W/m2
23:02 69.6 °F 61.7 °F 29.8 in WNW 4 mph 11 mph 76% 0 in 0 W/m2
23:07 69.3 °F 62.1 °F 29.8 in NW 2.9 mph 9 mph 78% 0 in 0 W/m2
23:12 68.9 °F 62.1 °F 29.8 in WSW 4.9 mph 7 mph 79% 0 in 0 W/m2
23:17 68.7 °F 62.2 °F 29.8 in West 2.9 mph 7 mph 80% 0 in 0 W/m2
23:22 68.4 °F 61.9 °F 29.8 in West 6 mph 9 mph 80% 0 in 0 W/m2
23:27 68.2 °F 62.1 °F 29.8 in WNW 2.9 mph 6 mph 81% 0 in 0 W/m2
23:32 68 °F 62.2 °F 29.8 in WSW 6.9 mph 8 mph 82% 0 in 0 W/m2
23:37 67.8 °F 62.1 °F 29.8 in WNW 4 mph 4 mph 82% 0 in 0 W/m2
23:42 67.8 °F 62.1 °F 29.8 in WNW 4.9 mph 7 mph 82% 0 in 0 W/m2
23:47 67.6 °F 61.9 °F 29.8 in NW 6.9 mph 9 mph 82% 0 in 0 W/m2
23:52 67.6 °F 61.9 °F 29.8 in WNW 0.9 mph 2 mph 82% 0 in 0 W/m2
23:57 67.6 °F 62.2 °F 29.8 in West 0.9 mph 9 mph 83% 0 in 0 W/m2
Juneau County Weather
Compliments of Weather Underground - 4 mb